Weather History for KEUG - November, 2013

Change the Weather History Date:

Sunday, November 3, 2013

  Actual Average Record
Temperature  
Mean Temperature 45 °F 48 °F  
Max Temperature 51 °F 56 °F 76 °F (1975)
Min Temperature 39 °F 39 °F 15 °F (1935)
Degree Days  
Heating Degree Days 20 17  
Month to date heating degree days 49 51  
Since 1 July heating degree days 610 621  
Cooling Degree Days 0 0  
Month to date cooling degree days 0 0  
Year to date cooling degree days 411 239  
Moisture  
Dew Point 42 °F    
Average Humidity 84    
Maximum Humidity 93    
Minimum Humidity 74    
Precipitation  
Precipitation 0.06 in 0.19 in 1.38 in (1972)
Month to date precipitation 0.34 0.56  
Year to date precipitation 17.92 31.11  
Snow  
Snow 0.00 in - - ()
Month to date snowfall  
Since 1 July snowfall 0.0  
Since 1 September snowfall 0.0  
Snow Depth 0.00 in    
Sea Level Pressure  
Sea Level Pressure 30.19 in    
Wind  
Wind Speed 6 mph (SW)    
Max Wind Speed 12 mph    
Max Gust Speed 13 mph    
Visibility 10 miles    
Events Rain    
T = Trace of Precipitation, MM = Missing Value Source: NWS Daily Summary

Daily Weather History Graph

Daily Weather History Graph

Search for Another Location

Airport or City:

Trip Planner

Search our weather history database for the weather conditions in past years. The results will help you decide how hot, cold, wet, or windy it might be!

Date:

Astronomy

Nov. 03, 2013 Rise Set
Actual Time 6:52 AM PST 4:59 PM PST
Civil Twilight 6:22 AM PST 5:29 PM PST
Nautical Twilight 5:48 AM PST 6:04 PM PST
Astronomical Twilight 5:14 AM PST 6:37 PM PST
Moon 7:03 AM PST (11/3) 5:17 PM PST (11/3)
Length of Visible Light 11h 07m
Length of Day
10h 06m
New Moon, 0% of the Moon is Illuminated
Nov 3
New Moon
Nov 9
First Quarter
Nov 17
Full
Nov 25
Last Quarter
Dec 2
New

Hourly Weather History & Observations

Time (PST) Temp. Windchill Dew Point Humidity Pressure Visibility Wind Dir Wind Speed Gust Speed Precip Events Conditions
12:54 AM 44.1 °F 40.1 °F 41.0 °F 89% 30.15 in 10.0 mi SW 6.9 mph - N/A   Overcast
1:54 AM 44.1 °F 40.8 °F 42.1 °F 93% 30.17 in 10.0 mi SSW 5.8 mph - 0.01 in   Overcast
1:54 AM 44.1 °F 40.1 °F 42.1 °F 93% 30.16 in 10.0 mi SSW 6.9 mph - N/A   Overcast
2:54 AM 39.9 °F 34.5 °F 37.9 °F 93% 30.16 in 10.0 mi SSW 8.1 mph - N/A   Clear
3:54 AM 42.1 °F 38.4 °F 39.9 °F 92% 30.17 in 10.0 mi SW 5.8 mph - N/A   Overcast
4:54 AM 42.1 °F 38.4 °F 39.9 °F 92% 30.17 in 10.0 mi SW 5.8 mph - 0.00 in   Overcast
5:54 AM 41.0 °F 36.4 °F 39.0 °F 93% 30.18 in 10.0 mi SW 6.9 mph - N/A   Overcast
6:54 AM 41.0 °F 38.0 °F 39.0 °F 93% 30.19 in 10.0 mi South 4.6 mph - N/A   Mostly Cloudy
7:54 AM 42.1 °F 39.2 °F 39.9 °F 92% 30.21 in 10.0 mi SSE 4.6 mph - N/A   Overcast
8:54 AM 45.0 °F 41.2 °F 42.1 °F 90% 30.22 in 10.0 mi South 6.9 mph - 0.03 in   Overcast
9:54 AM 46.9 °F - 42.1 °F 83% 30.22 in 10.0 mi SSW 6.9 mph - N/A   Overcast
10:54 AM 48.0 °F - 43.0 °F 83% 30.23 in 10.0 mi SW 6.9 mph - N/A   Overcast
11:54 AM 50.0 °F - 42.1 °F 74% 30.21 in 10.0 mi SW 8.1 mph - N/A   Overcast
12:54 PM 50.0 °F - 42.1 °F 74% 30.19 in 10.0 mi SW 6.9 mph - N/A   Overcast
1:54 PM 50.0 °F - 43.0 °F 77% 30.19 in 10.0 mi SW 8.1 mph - N/A   Overcast
2:54 PM 50.0 °F - 42.1 °F 74% 30.19 in 10.0 mi WSW 5.8 mph - N/A   Overcast
3:54 PM 48.9 °F - 43.0 °F 80% 30.19 in 9.0 mi SW 6.9 mph - 0.00 in Rain Light Rain
4:48 PM 46.4 °F 43.5 °F 44.6 °F 93% 30.18 in 9.0 mi West 5.8 mph - 0.02 in Rain Rain
4:54 PM 46.9 °F - 45.0 °F 93% 30.18 in 10.0 mi WNW 4.6 mph - 0.02 in Rain Light Rain
5:11 PM 46.4 °F - 44.6 °F 93% 30.17 in 10.0 mi Calm Calm - 0.00 in   Mostly Cloudy
5:54 PM 46.0 °F 43.9 °F 44.1 °F 93% 30.18 in 10.0 mi WSW 4.6 mph - 0.00 in   Mostly Cloudy
6:54 PM 46.0 °F 43.1 °F 44.1 °F 93% 30.18 in 10.0 mi SW 5.8 mph - 0.00 in   Mostly Cloudy
7:54 PM 45.0 °F 41.2 °F 43.0 °F 93% 30.19 in 10.0 mi SW 6.9 mph - N/A   Overcast
8:54 PM 45.0 °F 41.2 °F 43.0 °F 93% 30.19 in 10.0 mi SSW 6.9 mph - N/A   Overcast
9:54 PM 45.0 °F 41.2 °F 42.1 °F 90% 30.19 in 10.0 mi South 6.9 mph - N/A   Overcast
10:54 PM 45.0 °F 41.2 °F 42.1 °F 90% 30.19 in 10.0 mi SSW 6.9 mph - N/A   Overcast